| time (UTC) | temp F | wind direction | speed MPH | gust MPH | rain 1hr in | rain 24hr in | rain mn in | humidity % | barometer mb |
| 20260505063019 | 71 | 175 | 6.0 | 8.0 | 0.00 | 0.08 | 0.00 | 56 | 1008.0 |
| 20260505062042 | 71 | 107 | 2.0 | 4.0 | 0.00 | 0.08 | 0.00 | 56 | 1007.4 |
| 20260505061024 | 71 | 37 | 4.0 | 5.0 | 0.00 | 0.08 | 0.00 | 56 | 1007.2 |
| 20260505060020 | 71 | 31 | 4.0 | 7.0 | 0.00 | 0.08 | 0.00 | 56 | 1007.2 |
| 20260505055015 | 71 | 68 | 5.0 | 7.0 | 0.00 | 0.08 | 0.00 | 56 | 1007.0 |
| 20260505054030 | 71 | 2 | 6.0 | 10.0 | 0.00 | 0.08 | 0.00 | 56 | 1006.7 |
| 20260505053032 | 71 | 8 | 3.0 | 7.0 | 0.00 | 0.09 | 0.00 | 56 | 1006.7 |
| 20260505052016 | 71 | 37 | 4.0 | 8.0 | 0.00 | 0.09 | 0.00 | 56 | 1006.9 |
| 20260505051018 | 71 | 173 | 4.0 | 7.0 | 0.00 | 0.09 | 0.00 | 56 | 1006.7 |
| 20260505041032 | 70 | 9 | 3.0 | 5.0 | 0.00 | 0.13 | 0.09 | 59 | 1006.2 |
| 20260505040017 | 70 | 23 | 4.0 | 8.0 | 0.00 | 0.14 | 0.09 | 59 | 1006.4 |
| 20260505035019 | 71 | 14 | 3.0 | 4.0 | 0.00 | 0.14 | 0.09 | 59 | 1006.4 |
| 20260505034021 | 71 | 27 | 2.0 | 4.0 | 0.00 | 0.14 | 0.09 | 59 | 1006.7 |
| 20260505033023 | 71 | 45 | 3.0 | 6.0 | 0.00 | 0.14 | 0.09 | 59 | 1006.5 |
| 20260505032039 | 71 | 23 | 2.0 | 3.0 | 0.00 | 0.14 | 0.09 | 58 | 1006.7 |
| 20260505031015 | 71 | 29 | 3.0 | 4.0 | 0.00 | 0.14 | 0.09 | 58 | 1006.4 |
| 20260505030050 | 72 | 314 | 2.0 | 3.0 | 0.00 | 0.14 | 0.09 | 57 | 1006.4 |
| 20260505025052 | 72 | 67 | 3.0 | 4.0 | 0.00 | 0.14 | 0.09 | 57 | 1006.4 |
| 20260505024016 | 72 | 88 | 1.0 | 2.0 | 0.00 | 0.14 | 0.09 | 57 | 1006.2 |
| 20260505023018 | 72 | 5 | 2.0 | 3.0 | 0.00 | 0.14 | 0.09 | 56 | 1005.8 |
| 20260505022040 | 73 | 342 | 3.0 | 4.0 | 0.00 | 0.14 | 0.09 | 55 | 1005.7 |
| 20260505021022 | 73 | 358 | 3.0 | 5.0 | 0.00 | 0.14 | 0.09 | 55 | 1005.5 |
| 20260505020044 | 73 | 54 | 2.0 | 3.0 | 0.00 | 0.14 | 0.09 | 55 | 1005.4 |
| 20260505015046 | 73 | 68 | 3.0 | 4.0 | 0.00 | 0.14 | 0.09 | 55 | 1005.3 |
| 20260505014029 | 73 | 19 | 3.0 | 4.0 | 0.00 | 0.14 | 0.09 | 55 | 1005.2 |
| 20260505013030 | 73 | 10 | 2.0 | 3.0 | 0.00 | 0.14 | 0.09 | 55 | 1005.2 |
| 20260505012032 | 74 | 322 | 2.0 | 3.0 | 0.00 | 0.14 | 0.09 | 55 | 1005.2 |
| 20260505011017 | 74 | 68 | 1.0 | 2.0 | 0.00 | 0.14 | 0.09 | 56 | 1005.0 |
| 20260505010019 | 74 | 0.0 | 2.0 | 0.00 | 0.14 | 0.09 | 58 | 1005.0 | |
| 20260505005021 | 74 | 0.0 | 0.0 | 0.00 | 0.14 | 0.09 | 59 | 1004.8 | |
| 20260505004018 | 74 | 0.0 | 1.0 | 0.00 | 0.14 | 0.09 | 61 | 1004.7 | |
| 20260505003046 | 74 | 0.0 | 1.0 | 0.00 | 0.14 | 0.09 | 61 | 1004.8 | |
| 20260505002028 | 75 | 293 | 1.0 | 3.0 | 0.00 | 0.14 | 0.09 | 61 | 1004.8 |
| 20260505001030 | 75 | 0.0 | 0.0 | 0.00 | 0.14 | 0.09 | 59 | 1004.8 | |
| 20260505000052 | 75 | 315 | 0.0 | 3.0 | 0.00 | 0.14 | 0.09 | 59 | 1004.8 |
| 20260504235016 | 75 | 332 | 1.0 | 2.0 | 0.00 | 0.14 | 0.09 | 59 | 1004.8 |
| 20260504234019 | 75 | 5 | 1.0 | 3.0 | 0.00 | 0.14 | 0.09 | 60 | 1004.8 |
| 20260504233102 | 75 | 334 | 1.0 | 2.0 | 0.00 | 0.14 | 0.09 | 59 | 1005.2 |
| 20260504232023 | 75 | 23 | 3.0 | 4.0 | 0.00 | 0.14 | 0.09 | 57 | 1004.5 |
| 20260504231025 | 75 | 339 | 6.0 | 8.0 | 0.00 | 0.14 | 0.09 | 56 | 1004.8 |
| 20260504230028 | 76 | 313 | 3.0 | 5.0 | 0.00 | 0.14 | 0.09 | 54 | 1005.2 |
| 20260504225030 | 77 | 24 | 2.0 | 4.0 | 0.00 | 0.14 | 0.09 | 52 | 1005.7 |
| 20260504224032 | 77 | 280 | 4.0 | 8.0 | 0.00 | 0.14 | 0.09 | 51 | 1005.8 |
| 20260504223016 | 77 | 31 | 2.0 | 3.0 | 0.00 | 0.14 | 0.09 | 51 | 1006.2 |
| 20260504222018 | 77 | 0 | 1.0 | 4.0 | 0.00 | 0.14 | 0.09 | 52 | 1006.2 |
| 20260504221020 | 77 | 334 | 2.0 | 5.0 | 0.00 | 0.14 | 0.09 | 51 | 1006.2 |
| 20260504220016 | 77 | 341 | 5.0 | 7.0 | 0.00 | 0.14 | 0.09 | 49 | 1006.2 |
| 20260504215025 | 79 | 9 | 5.0 | 7.0 | 0.00 | 0.14 | 0.09 | 48 | 1006.0 |
| 20260504214027 | 79 | 8 | 5.0 | 6.0 | 0.00 | 0.14 | 0.09 | 48 | 1006.0 |
| 20260504213029 | 79 | 305 | 5.0 | 7.0 | 0.00 | 0.14 | 0.09 | 48 | 1006.2 |
| 20260504212031 | 79 | 338 | 4.0 | 7.0 | 0.00 | 0.14 | 0.09 | 48 | 1006.3 |
| 20260504211033 | 79 | 318 | 9.0 | 11.0 | 0.00 | 0.14 | 0.09 | 47 | 1006.4 |
| 20260504210017 | 79 | 342 | 6.0 | 9.0 | 0.00 | 0.14 | 0.09 | 48 | 1006.4 |
| 20260504205019 | 79 | 315 | 7.0 | 8.0 | 0.00 | 0.14 | 0.09 | 47 | 1006.5 |
| 20260504204021 | 78 | 45 | 4.0 | 5.0 | 0.00 | 0.14 | 0.09 | 50 | 1006.7 |
| 20260504203023 | 76 | 329 | 6.0 | 12.0 | 0.00 | 0.14 | 0.09 | 53 | 1006.8 |
| 20260504202045 | 77 | 3 | 6.0 | 10.0 | 0.00 | 0.14 | 0.09 | 54 | 1007.0 |
| 20260504201047 | 77 | 355 | 4.0 | 7.0 | 0.00 | 0.14 | 0.09 | 54 | 1007.2 |
| 20260504200030 | 76 | 19 | 5.0 | 10.0 | 0.00 | 0.14 | 0.09 | 55 | 1007.2 |
| 20260504195026 | 76 | 344 | 5.0 | 8.0 | 0.00 | 0.14 | 0.09 | 55 | 1007.2 |
| 20260504194016 | 74 | 339 | 5.0 | 9.0 | 0.00 | 0.14 | 0.09 | 56 | 1006.8 |
| 20260504193019 | 71 | 10 | 6.0 | 10.0 | 0.00 | 0.14 | 0.09 | 61 | 1006.0 |
| 20260504192015 | 68 | 14 | 6.0 | 11.0 | 0.00 | 0.14 | 0.09 | 66 | 1006.0 |
| 20260504191017 | 67 | 347 | 7.0 | 10.0 | 0.00 | 0.14 | 0.09 | 67 | 1008.0 |
| 20260504190019 | 69 | 298 | 4.0 | 6.0 | 0.00 | 0.14 | 0.09 | 63 | 1008.0 |
| 20260504185042 | 69 | 284 | 5.0 | 7.0 | 0.00 | 0.14 | 0.09 | 64 | 1008.3 |
| 20260504184024 | 68 | 300 | 5.0 | 8.0 | 0.00 | 0.14 | 0.09 | 67 | 1008.3 |
| 20260504183026 | 67 | 272 | 5.0 | 8.0 | 0.05 | 0.14 | 0.09 | 70 | 1008.1 |
| 20260504182027 | 0 | 23 | 5.0 | 5.0 | 0.05 | 0.14 | 0.09 | 1008.6 | |
| 20260504181030 | 64 | 18 | 2.0 | 4.0 | 0.07 | 0.14 | 0.09 | 77 | 1008.6 |
| 20260504180032 | 63 | 308 | 3.0 | 4.0 | 0.08 | 0.14 | 0.09 | 80 | 1008.6 |
| 20260504175016 | 62 | 31 | 2.0 | 3.0 | 0.08 | 0.14 | 0.09 | 80 | 1008.5 |
| 20260504174018 | 63 | 339 | 5.0 | 7.0 | 0.08 | 0.14 | 0.09 | 78 | 1008.5 |
| 20260504173020 | 0 | 0.0 | 0.0 | 0.03 | 0.09 | 0.04 | 1008.5 | ||
| 20260504172022 | 66 | 353 | 2.0 | 4.0 | 0.03 | 0.09 | 0.04 | 71 | 1008.8 |
| 20260504171024 | 66 | 290 | 3.0 | 3.0 | 0.01 | 0.07 | 0.02 | 69 | 1009.3 |
| 20260504151032 | 69 | 15 | 3.0 | 5.0 | 0.00 | 0.06 | 0.01 | 54 | 1010.3 |
| 20260504141016 | 70 | 28 | 4.0 | 6.0 | 0.00 | 0.06 | 0.01 | 55 | 1010.4 |
| 20260504081015 | 61 | 315 | 2.0 | 2.0 | 0.00 | 0.06 | 0.01 | 75 | 1011.3 |